Weather History for Clemson, SC

Change the Weather History Date:

Sunday, October 13, 2013

  Actual Average Record
Temperature  
Mean Temperature 72 °F -  
Max Temperature 79 °F 74 °F 90 °F (1954)
Min Temperature 66 °F 49 °F 31 °F (1988)
Cooling Degree Days 7    
Growing Degree Days 22 (Base 50)    
Moisture  
Dew Point 61 °F    
Average Humidity 73    
Maximum Humidity 87    
Minimum Humidity 54    
Precipitation  
Precipitation 0.02 in - - ()
Sea Level Pressure  
Sea Level Pressure 30.16 in    
Wind  
Wind Speed 2 mph (NE)    
Max Wind Speed 6 mph    
Max Gust Speed -    
Visibility 10 miles    
Events Rain    
Averages and records for this station are not official NWS values.
T = Trace of Precipitation, MM = Missing Value Source: NWS Daily Summary

Daily Weather History Graph

Daily Weather History Graph

Search for Another Location

Airport:

Trip Planner

Search our weather history database for the weather conditions in past years. The results will help you decide how hot, cold, wet, or windy it might be!

Date:

Astronomy

Oct. 13, 2013 Rise Set
Actual Time 7:35 AM EDT 6:59 PM EDT
Civil Twilight 7:10 AM EDT 7:24 PM EDT
Nautical Twilight 6:41 AM EDT 7:53 PM EDT
Astronomical Twilight 6:11 AM EDT 8:22 PM EDT
Moon 3:38 PM EDT (10/13) 1:57 AM EDT (10/13)
Length of Visible Light 12h 14m
Length of Day
11h 23m
Waxing Gibbous, 69% of the Moon is Illuminated
Oct 13
Waxing Gibbous
Oct 18
Full
Oct 26
Last Quarter
Nov 3
New
Nov 10
First Quarter

Hourly Weather History & Observations

Time (EDT) Temp. Dew Point Humidity Pressure Visibility Wind Dir Wind Speed Gust Speed Precip Events Conditions
12:54 AM 68.0 °F 60.1 °F 76% 30.10 in 10.0 mi NNW 3.5 mph - N/A   Overcast
1:54 AM 69.1 °F 59.0 °F 70% 30.11 in 10.0 mi North 3.5 mph - N/A   Overcast
2:54 AM 68.0 °F 60.1 °F 76% 30.11 in 10.0 mi North 3.5 mph - N/A   Overcast
3:54 AM 68.0 °F 60.1 °F 76% 30.11 in 10.0 mi Calm Calm - N/A   Overcast
4:54 AM 68.0 °F 59.0 °F 73% 30.11 in 10.0 mi Calm Calm - N/A   Overcast
5:54 AM 68.0 °F 60.1 °F 76% 30.12 in 10.0 mi Calm Calm - N/A   Overcast
6:54 AM 66.0 °F 60.1 °F 81% 30.15 in 10.0 mi North 3.5 mph - N/A   Overcast
7:54 AM 66.0 °F 60.1 °F 81% 30.15 in 10.0 mi Calm Calm - N/A   Overcast
8:54 AM 66.9 °F 61.0 °F 81% 30.17 in 10.0 mi Calm Calm - N/A   Overcast
9:54 AM 69.1 °F 61.0 °F 75% 30.19 in 10.0 mi Calm Calm - N/A   Overcast
10:54 AM 72.0 °F 61.0 °F 68% 30.19 in 10.0 mi Calm Calm - N/A   Scattered Clouds
11:22 AM 71.6 °F 60.8 °F 69% 30.22 in 10.0 mi NE 5.8 mph - N/A   Mostly Cloudy
11:31 AM 71.6 °F 60.8 °F 69% 30.22 in 10.0 mi Calm Calm - N/A   Overcast
11:54 AM 73.0 °F 61.0 °F 66% 30.19 in 10.0 mi East 5.8 mph - N/A   Overcast
12:54 PM 73.9 °F 61.0 °F 64% 30.19 in 10.0 mi Calm Calm - N/A   Overcast
1:54 PM 75.0 °F 60.1 °F 60% 30.17 in 10.0 mi SSE 3.5 mph - N/A   Overcast
2:54 PM 78.1 °F 60.1 °F 54% 30.14 in 10.0 mi Calm Calm - N/A   Overcast
3:54 PM 73.9 °F 62.1 °F 66% 30.14 in 10.0 mi Calm Calm - 0.00 in   Overcast
4:54 PM 75.0 °F 62.1 °F 64% 30.13 in 10.0 mi Calm Calm - N/A   Overcast
5:54 PM 73.9 °F 63.0 °F 68% 30.14 in 10.0 mi Calm Calm - N/A   Overcast
6:54 PM 73.0 °F 64.0 °F 73% 30.15 in 10.0 mi Calm Calm - N/A   Overcast
7:54 PM 71.1 °F 64.0 °F 78% 30.17 in 10.0 mi Calm Calm - N/A   Overcast
8:54 PM 72.0 °F 62.1 °F 71% 30.18 in 10.0 mi ENE 3.5 mph - N/A   Overcast
9:54 PM 69.1 °F 64.0 °F 84% 30.21 in 5.0 mi NNE 5.8 mph - 0.01 in Rain Light Rain
10:54 PM 66.9 °F 63.0 °F 87% 30.21 in 10.0 mi NNE 4.6 mph - 0.01 in   Overcast
11:54 PM 66.9 °F 62.1 °F 84% 30.20 in 10.0 mi NNE 4.6 mph - N/A   Overcast